[[{"header":{"parameterUnit":"m.s-1","parameterCategory":1,"la1":30.2991,"la2":30.254,"lo1":-89.0895,"lo2":-89.0444,"dx":0.0017,"dy":0.0017,"nx":28,"ny":28,"refTime":"2022-11-15T09:00:00:Z","depth":0,"parameterNumber":2,"parameterNumberName":"U-component_of_WINDS"},"data":[0,0,0,0,0,0,0,0,0,0,0,0,0,0,0,0,0,0,0,0,0,0,0,0,0,0,0,0,0,0,0,0,0,0,0,0,0,0,0,0,0,0,0,0,0,0,0,0,0,0,0,0,0,0,0,0,0,0,-0.2567,-0.2567,0,-0.2589,-0.2589,-0.2589,-0.2566,-0.2565,-0.2564,-0.2563,-0.2586,-0.2587,-0.2589,0,0,0,0,0,0,0,0,0,0,0,0,0,-0.2506,-0.2508,-0.2567,-0.2568,-0.2568,-0.2589,-0.2589,-0.2589,-0.2566,-0.2565,-0.2563,-0.2562,-0.2585,-0.2587,-0.2589,0,0,0,0,0,0,0,0,0,0,0,0,0,-0.2531,-0.2508,-0.2567,-0.2559,-0.2558,-0.2588,-0.2589,-0.2589,-0.2566,-0.2565,-0.2563,-0.2562,-0.2585,-0.2587,-0.2589,-0.263,0,0,-0.2596,-0.2597,0,0,0,0,0,0,0,0,-0.2529,-0.2533,-0.256,-0.2559,-0.2559,-0.2573,-0.2576,-0.2603,-0.2566,-0.2563,-0.2563,-0.2561,-0.2583,-0.2585,-0.2592,-0.2631,-0.2632,-0.2596,-0.2597,-0.2598,-0.2599,0,0,0,0,0,0,0,-0.2528,-0.2532,-0.2576,-0.256,-0.2559,-0.2554,-0.2556,-0.2581,-0.258,-0.2563,-0.2561,-0.2564,-0.2582,-0.259,-0.2592,-0.2632,-0.2596,-0.2598,-0.2599,-0.26,-0.2704,-0.2705,0,0,0,0,0,0,-0.2527,-0.2531,-0.2575,-0.2576,-0.254,-0.2556,-0.2558,-0.257,-0.258,-0.258,-0.2565,-0.2563,-0.2587,-0.259,-0.2593,-0.2641,-0.2598,-0.26,-0.2601,-0.2703,-0.2704,-0.2706,0,0,0,0,0,0,-0.2526,-0.2531,-0.2574,-0.2553,-0.2558,-0.2558,-0.2572,-0.2571,-0.2579,-0.2582,-0.2581,-0.2573,-0.2586,-0.259,-0.262,-0.2642,-0.2601,-0.2603,-0.2701,-0.2703,-0.2705,-0.2738,0,0,0,0,0,0,-0.2524,-0.2531,-0.2546,-0.2554,-0.2559,-0.2601,-0.2573,-0.2572,-0.2582,-0.2579,-0.2589,-0.2589,-0.2585,-0.2617,-0.2623,-0.2644,-0.2605,-0.2699,-0.2702,-0.2704,-0.2735,-0.2741,-0.2746,0,0,0,0,0,-0.2522,-0.2555,-0.2547,-0.2553,-0.2579,-0.2603,-0.2606,-0.26,-0.2584,-0.26,-0.2601,-0.2589,-0.2638,-0.2621,-0.2626,-0.2649,-0.2698,-0.2701,-0.2704,-0.2732,-0.274,-0.2746,0,0,0,0,0,0,-0.2551,-0.2556,-0.2547,-0.2584,-0.2593,-0.2599,-0.2618,-0.2608,-0.2622,-0.2619,-0.2612,-0.2614,-0.2646,-0.265,-0.2631,-0.2688,-0.2665,-0.267,-0.2685,-0.2692,-0.2697,-0.2696,-0.2607,0,0,0,0,0,-0.2562,-0.2581,-0.2584,-0.2615,-0.262,-0.2618,-0.2629,-0.2623,-0.2633,-0.2637,-0.264,-0.265,-0.2668,-0.268,-0.2696,-0.2735,-0.2736,-0.2753,-0.2758,-0.2763,-0.2767,-0.2788,-0.2795,-0.2717,-0.2717,-0.2717,0,0,-0.2584,-0.2589,-0.2601,-0.2621,-0.2628,-0.2648,-0.2622,-0.2644,-0.2659,-0.264,-0.2669,-0.2672,-0.2682,-0.2717,-0.2733,-0.2721,-0.2789,-0.2767,-0.277,-0.2773,-0.2792,-0.28,-0.2806,-0.2719,-0.2719,-0.2718,0,0,-0.2635,-0.264,-0.2667,-0.2674,-0.2684,-0.2682,-0.2688,-0.2695,-0.2696,-0.2725,-0.2711,-0.2728,-0.2759,-0.2767,-0.2775,-0.2826,-0.2816,-0.2832,-0.2862,-0.2882,-0.2888,-0.2893,-0.2913,-0.292,-0.2836,-0.2836,-0.2836,0,-0.2662,-0.2691,-0.2683,-0.2706,-0.2715,-0.2697,-0.2725,-0.2732,-0.2746,-0.2753,-0.274,-0.2777,-0.2783,-0.2819,-0.2832,-0.2838,-0.2846,-0.2832,-0.2888,-0.2893,-0.2898,-0.2916,-0.2923,-0.2838,-0.2838,-0.2838,-0.2837,0,-0.2724,-0.2744,-0.2764,-0.2779,-0.279,-0.2815,-0.281,-0.2823,-0.2815,-0.2815,-0.2844,-0.285,-0.2867,-0.2875,-0.2869,-0.291,-0.2903,-0.2889,-0.2866,-0.2908,-0.2925,-0.2932,-0.2841,-0.284,-0.284,-0.2839,0,0,-0.2796,-0.2804,-0.2811,-0.2817,-0.2826,-0.2842,-0.2865,-0.2881,-0.2892,-0.2902,-0.2923,-0.2948,-0.2934,-0.2943,-0.2937,-0.2955,-0.2996,-0.2939,-0.2939,-0.295,-0.3043,-0.3054,-0.3063,-0.2988,-0.2989,-0.299,-0.3042,0,-0.2848,-0.2889,-0.2881,-0.2922,-0.2941,-0.2923,-0.2944,-0.2951,-0.2951,-0.2967,-0.2966,-0.2985,-0.2965,-0.297,-0.2987,-0.2988,-0.3015,-0.2984,-0.3008,-0.3009,-0.3007,-0.3071,-0.3084,-0.3133,-0.3049,-0.305,-0.305,0,-0.2914,-0.2926,-0.2969,-0.2973,-0.2981,-0.3,-0.3013,-0.3028,-0.3036,-0.3035,-0.3044,-0.3034,-0.3058,-0.3033,-0.3066,-0.3045,-0.3053,-0.3055,-0.3057,-0.306,-0.3033,-0.3078,-0.3148,-0.3156,-0.3061,-0.306,-0.3059,0,-0.2964,-0.299,-0.3019,-0.3024,-0.3031,-0.3044,-0.3047,-0.3054,-0.3064,-0.3075,-0.3082,-0.3096,-0.3104,-0.3115,-0.311,-0.3092,-0.3143,-0.3118,-0.3143,-0.3144,-0.3157,-0.3156,-0.3231,-0.316,-0.316,-0.316,-0.3159,0,-0.3024,-0.305,-0.3041,-0.3059,-0.3088,-0.3079,-0.3108,-0.3109,-0.3114,-0.3132,-0.3117,-0.3134,-0.3125,-0.3141,-0.3136,-0.3164,-0.3168,-0.3168,-0.3166,-0.317,-0.317,-0.3177,-0.3174,-0.3161,-0.3161,-0.3161,-0.316,0,-0.3085,-0.308,-0.311,-0.3113,-0.3114,-0.3135,-0.3138,-0.3154,-0.3152,-0.3174,-0.3179,-0.3176,-0.3194,-0.3189,-0.3208,-0.3205,-0.3241,-0.3234,-0.3238,-0.3237,-0.3263,-0.3261,-0.3346,-0.3356,-0.3277,-0.3278,-0.3279,0,-0.3124,-0.3144,-0.3149,-0.3159,-0.3163,-0.3181,-0.319,-0.3181,-0.3191,-0.3201,-0.3216,-0.3233,-0.3246,-0.3275,-0.3275,-0.3289,-0.3284,-0.3313,-0.3287,-0.3289,-0.3286,-0.3285,-0.3288,-0.3319,-0.332,-0.332,-0.3321,0,-0.3195,-0.3191,-0.3205,-0.3219,-0.323,-0.324,-0.3249,-0.3258,-0.3249,-0.3262,-0.328,-0.329,-0.3309,-0.3326,-0.3339,-0.3342,-0.3331,-0.3329,-0.3335,-0.334,-0.3342,-0.3342,-0.3254,-0.3327,-0.3327,-0.3326,-0.3326,-0.3326,-0.3247,-0.3264,-0.327,-0.3286,-0.3291,-0.3299,-0.3315,-0.3314,-0.3328,-0.3344,-0.3337,-0.3357,-0.3363,-0.338,-0.3384,-0.34,-0.339,-0.3399,-0.3402,-0.3405,-0.3409,-0.3338,-0.3403,-0.3402,-0.3402,-0.3402,-0.3402,0,-0.3318,-0.332,-0.3335,-0.3347,-0.336,-0.3346,-0.3354,-0.3366,-0.3385,-0.3391,-0.3403,-0.3424,-0.3439,-0.3439,-0.3454,-0.3467,-0.3462,-0.3471,-0.3471,-0.3472,-0.3417,-0.341,-0.3475,-0.3475,-0.3475,-0.3475,-0.3475,-0.3475,-0.3356,-0.3384,-0.3381,-0.3411,-0.3412,-0.3433,-0.3439,-0.3446,-0.3451,-0.3474,-0.3487,-0.3486,-0.349,-0.3504,-0.3518,-0.3518,-0.3524,-0.3536,-0.3534,-0.3483,-0.3476,-0.3469,-0.3462,-0.3537,-0.3537,-0.3587,-0.3588,-0.3588]},{"header":{"parameterUnit":"m.s-1","parameterCategory":1,"la1":30.2991,"la2":30.254,"lo1":-89.0895,"lo2":-89.0444,"dx":0.0017,"dy":0.0017,"nx":28,"ny":28,"refTime":"2022-11-15T09:00:00:Z","depth":0,"parameterNumber":3,"parameterNumberName":"V-component_of_WINDS"},"data":[0,0,0,0,0,0,0,0,0,0,0,0,0,0,0,0,0,0,0,0,0,0,0,0,0,0,0,0,0,0,0,0,0,0,0,0,0,0,0,0,0,0,0,0,0,0,0,0,0,0,0,0,0,0,0,0,0,0,-7.1408,-7.1409,0,-7.152,-7.1521,-7.1522,-7.1459,-7.1456,-7.1453,-7.145,-7.1559,-7.1565,-7.157,0,0,0,0,0,0,0,0,0,0,0,0,0,-7.1136,-7.1141,-7.1408,-7.141,-7.1411,-7.1519,-7.1521,-7.1522,-7.146,-7.1456,-7.1452,-7.1449,-7.1557,-7.1564,-7.1571,0,0,0,0,0,0,0,0,0,0,0,0,0,-7.1252,-7.1143,-7.1408,-7.1393,-7.1393,-7.1519,-7.1521,-7.1523,-7.146,-7.1456,-7.1451,-7.1447,-7.1555,-7.1563,-7.1572,-7.1718,0,0,-7.1598,-7.1602,0,0,0,0,0,0,0,0,-7.1245,-7.1262,-7.1394,-7.1394,-7.1394,-7.1471,-7.1465,-7.1588,-7.1462,-7.1435,-7.145,-7.1445,-7.1533,-7.1543,-7.1574,-7.1723,-7.1728,-7.1599,-7.1604,-7.1608,-7.1611,0,0,0,0,0,0,0,-7.1237,-7.1256,-7.1452,-7.1396,-7.1396,-7.1379,-7.139,-7.1488,-7.1508,-7.1437,-7.1432,-7.1447,-7.1532,-7.1566,-7.1576,-7.1729,-7.1599,-7.1607,-7.1612,-7.1615,-7.2004,-7.2009,0,0,0,0,0,0,-7.1231,-7.125,-7.1448,-7.1455,-7.1307,-7.1388,-7.14,-7.1451,-7.1507,-7.1511,-7.145,-7.1443,-7.1553,-7.1566,-7.158,-7.1755,-7.1608,-7.1616,-7.1621,-7.1999,-7.2005,-7.201,0,0,0,0,0,0,-7.1225,-7.1249,-7.1444,-7.1352,-7.1375,-7.1397,-7.1455,-7.1455,-7.1489,-7.1518,-7.152,-7.1482,-7.155,-7.1568,-7.1685,-7.1758,-7.162,-7.1628,-7.1993,-7.2001,-7.2008,-7.2107,0,0,0,0,0,0,-7.1218,-7.1248,-7.1304,-7.1354,-7.138,-7.1549,-7.1459,-7.1461,-7.1505,-7.1497,-7.1548,-7.1551,-7.1548,-7.1672,-7.1693,-7.1767,-7.1635,-7.1986,-7.1996,-7.2005,-7.2097,-7.2117,-7.2134,0,0,0,0,0,-7.1208,-7.1327,-7.1308,-7.1332,-7.1452,-7.1553,-7.1568,-7.1563,-7.1511,-7.1568,-7.1586,-7.155,-7.1746,-7.1684,-7.1708,-7.1786,-7.1981,-7.1993,-7.2005,-7.2089,-7.2113,-7.2133,0,0,0,0,0,0,-7.1284,-7.1333,-7.1312,-7.145,-7.1498,-7.1542,-7.1614,-7.1589,-7.1651,-7.1641,-7.163,-7.1642,-7.1764,-7.1786,-7.1716,-7.193,-7.1856,-7.1872,-7.1911,-7.1935,-7.1953,-7.1945,-7.1642,0,0,0,0,0,-7.1317,-7.1396,-7.1434,-7.1552,-7.1577,-7.1592,-7.1635,-7.1628,-7.1676,-7.1695,-7.1722,-7.1769,-7.1841,-7.1889,-7.1957,-7.2099,-7.2109,-7.2164,-7.2183,-7.2198,-7.2212,-7.2289,-7.2314,-7.2048,-7.2048,-7.2048,0,0,-7.1385,-7.1422,-7.1472,-7.1568,-7.1604,-7.1685,-7.1609,-7.1698,-7.1757,-7.1708,-7.1821,-7.1842,-7.1894,-7.2024,-7.2083,-7.2046,-7.2288,-7.2213,-7.2224,-7.2231,-7.2304,-7.2329,-7.2351,-7.2056,-7.2055,-7.2053,0,0,-7.1552,-7.1588,-7.169,-7.1729,-7.1785,-7.1794,-7.1818,-7.1867,-7.188,-7.1993,-7.1958,-7.2027,-7.2152,-7.2191,-7.2226,-7.2408,-7.2377,-7.243,-7.2526,-7.2602,-7.2623,-7.2641,-7.2706,-7.2729,-7.2445,-7.2445,-7.2445,0,-7.1629,-7.1752,-7.1746,-7.1838,-7.1881,-7.1842,-7.1945,-7.1982,-7.2057,-7.2087,-7.2045,-7.2202,-7.2233,-7.2372,-7.2417,-7.2447,-7.2474,-7.2424,-7.262,-7.2639,-7.2656,-7.2718,-7.2742,-7.2451,-7.245,-7.245,-7.2449,0,-7.1844,-7.193,-7.2005,-7.2081,-7.2133,-7.223,-7.2237,-7.229,-7.2278,-7.229,-7.2406,-7.2443,-7.2518,-7.255,-7.2538,-7.2688,-7.2664,-7.2622,-7.2546,-7.2688,-7.2745,-7.2769,-7.246,-7.2458,-7.2456,-7.2454,0,0,-7.2061,-7.2133,-7.2161,-7.2195,-7.2255,-7.232,-7.2415,-7.249,-7.2535,-7.2588,-7.2667,-7.2774,-7.2736,-7.2776,-7.2768,-7.2834,-7.2976,-7.2784,-7.2785,-7.2819,-7.3143,-7.3175,-7.3202,-7.2956,-7.296,-7.2964,-7.3139,0,-7.2232,-7.24,-7.2398,-7.2553,-7.2632,-7.2596,-7.2678,-7.2723,-7.2737,-7.2805,-7.2819,-7.2896,-7.2839,-7.2864,-7.2928,-7.2946,-7.3041,-7.2933,-7.3028,-7.3032,-7.3017,-7.3233,-7.3266,-7.343,-7.3161,-7.3165,-7.3168,0,-7.2453,-7.2516,-7.268,-7.2729,-7.2761,-7.2836,-7.2905,-7.297,-7.302,-7.3025,-7.3072,-7.3053,-7.3148,-7.3071,-7.3201,-7.3127,-7.3166,-7.318,-7.3187,-7.3195,-7.3109,-7.3248,-7.3482,-7.3507,-7.3203,-7.3201,-7.3198,0,-7.2596,-7.2721,-7.2835,-7.2865,-7.2925,-7.2978,-7.3005,-7.305,-7.3096,-7.3155,-7.3184,-7.3253,-7.3291,-7.3345,-7.3345,-7.3288,-7.3477,-7.3399,-7.3483,-7.3484,-7.3525,-7.3522,-7.3769,-7.3549,-7.3549,-7.3549,-7.3548,0,-7.2787,-7.2889,-7.29,-7.2971,-7.3083,-7.3079,-7.319,-7.3211,-7.3252,-7.3324,-7.3296,-7.3365,-7.3361,-7.343,-7.3431,-7.3539,-7.3555,-7.3562,-7.3561,-7.3565,-7.3564,-7.359,-7.3579,-7.3555,-7.3554,-7.3552,-7.3551,0,-7.2965,-7.2977,-7.31,-7.3146,-7.316,-7.3241,-7.3281,-7.3347,-7.3359,-7.3451,-7.3473,-7.3491,-7.3571,-7.3577,-7.3668,-7.3669,-7.38,-7.3786,-7.3784,-7.3781,-7.3866,-7.3858,-7.4138,-7.4175,-7.3931,-7.3933,-7.3935,0,-7.3087,-7.3164,-7.322,-7.3268,-7.3299,-7.3376,-7.3423,-7.3421,-7.347,-7.3533,-7.3591,-7.3669,-7.3731,-7.386,-7.3881,-7.395,-7.3938,-7.4032,-7.3948,-7.395,-7.394,-7.3936,-7.3943,-7.4048,-7.4051,-7.4053,-7.4055,0,-7.3301,-7.3303,-7.3373,-7.3446,-7.3503,-7.3559,-7.3611,-7.3651,-7.3656,-7.3712,-7.3795,-7.3843,-7.3938,-7.4015,-7.4084,-7.4109,-7.4083,-7.4081,-7.4104,-7.4109,-7.4105,-7.4109,-7.3828,-7.4074,-7.4072,-7.4071,-7.407,-7.4069,-7.3455,-7.3523,-7.3573,-7.3651,-7.3691,-7.3741,-7.3806,-7.3827,-7.3896,-7.3975,-7.3968,-7.406,-7.4106,-7.4196,-7.4227,-7.4297,-7.4265,-7.4299,-7.4308,-7.4316,-7.4325,-7.4094,-7.431,-7.4309,-7.4308,-7.4308,-7.4308,0,-7.3668,-7.3699,-7.3771,-7.3847,-7.3909,-7.388,-7.3936,-7.3989,-7.4071,-7.4118,-7.418,-7.4275,-7.4349,-7.4376,-7.4449,-7.45,-7.4489,-7.4519,-7.4515,-7.4521,-7.4349,-7.4322,-7.4526,-7.4526,-7.4526,-7.4526,-7.4526,-7.4526,-7.3786,-7.39,-7.3908,-7.404,-7.407,-7.4161,-7.4195,-7.4241,-7.4278,-7.4386,-7.4449,-7.4466,-7.4505,-7.458,-7.4647,-7.4653,-7.4681,-7.4716,-7.4716,-7.4555,-7.4533,-7.4512,-7.4487,-7.4722,-7.4722,-7.4882,-7.4884,-7.4885]}]]